AC5AN Weather Reports


time (UTC)temp
C
wind
direction
speed
KPH
gust
KPH
rain 1hr
cm
rain 24hr
cm
rain mn
cm
humidity
%
barometer
mb
20260506231317 18 360 9.7 24.1 0.00 0.00 0.00 49 1014.9
20260506230824 18 81 12.9 22.5 0.00 0.00 0.00 49 1014.8
20260506230325 18 24 8.0 20.9 0.00 0.00 0.00 49 1014.9
20260506225825 18 80 11.3 20.9 0.00 0.00 0.00 50 1014.9
20260506225332 18 65 12.9 17.7 0.00 0.00 0.00 49 1014.9
20260506224813 18 92 9.7 17.7 0.00 0.00 0.00 49 1014.8
20260506224313 18 57 8.0 19.3 0.00 0.00 0.00 49 1014.8
20260506223820 18 69 12.9 19.3 0.00 0.00 0.00 50 1014.8
20260506223320 18 64 9.7 19.3 0.00 0.00 0.00 50 1014.8
20260506222828 18 360 11.3 20.9 0.00 0.00 0.00 49 1014.7
20260506222328 18 65 14.5 20.9 0.00 0.00 0.00 49 1014.7
20260506221835 18 34 12.9 19.3 0.00 0.00 0.00 49 1014.7
20260506221315 18 84 9.7 25.7 0.00 0.00 0.00 50 1014.8
20260506220815 18 360 14.5 20.9 0.00 0.00 0.00 48 1014.8
20260506220322 18 78 11.3 20.9 0.00 0.00 0.00 48 1014.8
20260506215824 18 52 9.7 19.3 0.00 0.00 0.00 50 1014.8
20260506215331 18 57 9.7 17.7 0.00 0.00 0.00 49 1014.8
20260506214838 18 28 8.0 22.5 0.00 0.00 0.00 48 1014.8
20260506214318 18 68 11.3 17.7 0.00 0.00 0.00 48 1014.8
20260506213817 18 65 11.3 20.9 0.00 0.00 0.00 49 1014.8
20260506213345 18 51 12.9 20.9 0.00 0.00 0.00 48 1014.8
20260506212824 18 27 9.7 24.1 0.00 0.00 0.00 50 1014.9
20260506212332 18 360 14.5 24.1 0.00 0.00 0.00 49 1015.0
20260506211835 18 355 11.3 24.1 0.00 0.00 0.00 51 1015.0
20260506211322 18 12 16.1 24.1 0.00 0.00 0.00 50 1015.0
20260506210823 18 80 14.5 24.1 0.00 0.00 0.00 50 1015.0
20260506210332 18 360 14.5 25.7 0.00 0.00 0.00 49 1015.1
20260506205816 18 84 11.3 20.9 0.00 0.00 0.00 50 1015.1
20260506205315 18 83 9.7 27.4 0.00 0.00 0.00 51 1015.1
20260506204838 18 28 16.1 27.4 0.00 0.00 0.00 50 1015.1
20260506204338 18 30 14.5 24.1 0.00 0.00 0.00 50 1015.1
20260506203844 18 27 12.9 24.1 0.00 0.00 0.00 52 1015.1
20260506203331 18 360 12.9 25.7 0.00 0.00 0.00 51 1015.0
20260506202831 18 28 12.9 29.0 0.00 0.00 0.00 52 1015.2
20260506202312 17 22 16.1 29.0 0.00 0.00 0.00 51 1015.2
20260506201839 18 360 17.7 29.0 0.00 0.00 0.00 51 1015.3
20260506201319 17 22 16.1 24.1 0.00 0.00 0.00 52 1015.3
20260506200828 17 355 12.9 25.7 0.00 0.00 0.00 52 1015.2
20260506200326 17 28 12.9 27.4 0.00 0.00 0.00 53 1015.2
20260506195832 17 360 17.7 30.6 0.00 0.00 0.00 53 1015.2
20260506195312 17 32 16.1 30.6 0.00 0.00 0.00 52 1015.3
20260506194821 17 44 14.5 27.4 0.00 0.00 0.00 54 1015.2
20260506194322 17 34 19.3 27.4 0.00 0.00 0.00 54 1015.2
20260506193849 17 360 14.5 22.5 0.00 0.00 0.00 52 1015.2
20260506193328 17 11 16.1 24.1 0.00 0.00 0.00 54 1015.2
20260506192836 17 27 16.1 24.1 0.00 0.00 0.00 53 1015.2
20260506192337 17 63 14.5 27.4 0.00 0.00 0.00 53 1015.3
20260506191824 16 360 16.1 27.4 0.00 0.00 0.00 54 1015.2
20260506191324 16 34 16.1 25.7 0.00 0.00 0.00 55 1015.2
20260506190825 16 25 11.3 25.7 0.00 0.00 0.00 56 1015.1
20260506190333 16 22 14.5 29.0 0.00 0.00 0.00 55 1015.2
20260506185841 16 40 17.7 29.0 0.00 0.00 0.00 56 1015.0
20260506185319 15 63 16.1 29.0 0.00 0.00 0.00 57 1015.1
20260506184820 15 74 19.3 30.6 0.00 0.00 0.00 57 1015.0
20260506184328 15 30 16.1 30.6 0.00 0.00 0.00 58 1015.0
20260506183829 15 360 16.1 29.0 0.00 0.00 0.00 58 1015.0
20260506183336 14 11 17.7 27.4 0.00 0.00 0.00 58 1015.2
20260506182816 14 57 17.7 27.4 0.00 0.00 0.00 58 1015.3
20260506182316 14 360 17.7 25.7 0.00 0.00 0.00 58 1015.4
20260506181824 14 360 14.5 29.0 0.00 0.00 0.00 58 1015.5
20260506181352 15 53 11.3 29.0 0.00 0.00 0.00 57 1015.7
20260506180850 15 360 12.9 24.1 0.00 0.00 0.00 59 1015.8
20260506180337 14 28 14.5 22.5 0.00 0.00 0.00 58 1015.9
20260506175818 14 65 14.5 25.7 0.00 0.00 0.00 59 1016.0
20260506175324 13 76 16.1 25.7 0.00 0.00 0.00 59 1016.3
20260506174822 13 81 16.1 25.7 0.00 0.00 0.00 59 1016.3
20260506174329 13 51 16.1 25.7 0.00 0.00 0.00 59 1016.5
20260506173829 13 75 17.7 25.7 0.00 0.00 0.00 59 1016.5
20260506173337 13 69 12.9 25.7 0.00 0.00 0.00 59 1016.7
20260506172817 13 360 17.7 25.7 0.00 0.00 0.00 59 1016.9
20260506172318 13 360 14.5 22.5 0.00 0.00 0.00 59 1016.8
20260506171814 13 43 11.3 20.9 0.00 0.00 0.00 59 1017.0
20260506171323 13 63 11.3 20.9 0.00 0.00 0.00 59 1017.1
20260506170822 12 55 11.3 22.5 0.00 0.00 0.00 60 1017.2
20260506170328 12 111 12.9 22.5 0.00 0.00 0.00 60 1017.2
20260506165827 12 88 11.3 25.7 0.00 0.00 0.00 60 1017.2
20260506165328 12 87 14.5 25.7 0.00 0.00 0.00 60 1017.3
20260506164817 12 360 11.3 20.9 0.00 0.00 0.00 61 1017.3
20260506164315 12 94 12.9 20.9 0.00 0.00 0.00 61 1017.3
20260506163816 11 64 11.3 22.5 0.00 0.00 0.00 60 1017.3
20260506163344 12 67 14.5 22.5 0.00 0.00 0.00 60 1017.3
20260506162851 12 360 16.1 24.1 0.00 0.00 0.00 59 1017.3
20260506162330 12 360 14.5 27.4 0.00 0.00 0.00 59 1017.2
20260506161838 12 360 14.5 27.4 0.00 0.00 0.00 59 1017.2
20260506161318 12 360 14.5 25.7 0.00 0.00 0.00 59 1017.0
20260506160847 12 38 16.1 29.0 0.00 0.00 0.00 60 1016.8
20260506160327 12 39 14.5 29.0 0.00 0.00 0.00 60 1017.0
20260506155824 11 82 19.3 29.0 0.00 0.00 0.00 60 1016.9
20260506155331 11 78 12.9 25.7 0.00 0.00 0.00 60 1016.9
20260506154831 11 70 12.9 27.4 0.00 0.00 0.00 60 1017.1
20260506154312 11 61 17.7 27.4 0.00 0.00 0.00 60 1017.2
20260506153819 11 77 14.5 24.1 0.00 0.00 0.00 60 1017.2
20260506153319 11 59 12.9 24.1 0.00 0.00 0.00 60 1017.2
20260506152846 11 124 14.5 24.1 0.00 0.00 0.00 60 1017.2
20260506152325 11 360 16.1 27.4 0.00 0.00 0.00 60 1017.2
20260506151832 11 360 12.9 27.4 0.00 0.00 0.00 61 1016.9
20260506151313 11 360 17.7 29.0 0.00 0.00 0.00 61 1016.8
20260506150834 10 82 17.7 29.0 0.00 0.00 0.00 61 1016.7
20260506150322 10 360 14.5 33.8 0.00 0.00 0.00 61 1016.5
20260506145822 10 360 19.3 33.8 0.00 0.00 0.00 61 1016.5
20260506145329 10 360 12.9 27.4 0.00 0.00 0.00 61 1016.3
20260506144829 10 360 17.7 27.4 0.00 0.00 0.00 61 1016.2
20260506144342 10 360 19.3 27.4 0.00 0.00 0.00 61 1016.2
20260506143822 10 360 16.1 27.4 0.00 0.00 0.00 62 1016.1
20260506143350 10 360 16.1 30.6 0.00 0.00 0.00 62 1016.0
20260506142856 10 360 17.7 30.6 0.00 0.00 0.00 62 1016.0
20260506142314 10 360 17.7 30.6 0.00 0.00 0.00 62 1015.9
20260506141816 10 360 12.9 25.7 0.00 0.00 0.00 62 1015.9
20260506141324 10 360 16.1 37.0 0.00 0.00 0.00 62 1015.8
20260506140823 10 360 20.9 37.0 0.00 0.00 0.00 62 1015.6
20260506140324 10 360 16.1 27.4 0.00 0.00 0.00 62 1015.6
20260506135833 10 360 16.1 27.4 0.00 0.00 0.00 62 1015.4
20260506135312 10 360 11.3 30.6 0.00 0.00 0.00 62 1015.4
20260506134819 10 360 16.1 30.6 0.00 0.00 0.00 62 1015.3
20260506134319 10 360 17.7 27.4 0.00 0.00 0.00 62 1015.3
20260506133819 10 360 16.1 27.4 0.00 0.00 0.00 62 1015.3
20260506133326 10 360 16.1 27.4 0.00 0.00 0.00 62 1015.2
20260506132826 10 360 16.1 27.4 0.00 0.00 0.00 62 1015.3
20260506132335 10 360 17.7 30.6 0.00 0.00 0.00 62 1015.3
20260506131815 10 360 17.7 38.6 0.00 0.00 0.00 62 1015.2
20260506131316 10 360 20.9 38.6 0.00 0.00 0.00 62 1015.1
20260506130844 10 360 14.5 30.6 0.00 0.00 0.00 62 1015.1
20260506130351 10 360 16.1 30.6 0.00 0.00 0.00 62 1015.0
20260506125830 10 360 17.7 30.6 0.00 0.00 0.00 62 1014.9
20260506125339 10 360 16.1 27.4 0.00 0.00 0.00 61 1014.9
20260506124819 10 360 16.1 24.1 0.00 0.00 0.00 61 1014.9
20260506124316 10 360 12.9 29.0 0.00 0.00 0.00 61 1014.7
20260506123816 10 360 16.1 29.0 0.00 0.00 0.00 61 1014.5
20260506123323 10 360 14.5 27.4 0.00 0.00 0.00 61 1014.4
20260506122824 10 360 11.3 29.0 0.00 0.00 0.00 61 1014.5
20260506122332 9 360 14.5 29.0 0.00 0.00 0.00 61 1014.5
20260506121830 9 360 16.1 27.4 0.00 0.00 0.00 61 1014.5
20260506121331 9 360 16.1 27.4 0.00 0.00 0.00 61 1014.1
20260506120820 9 360 16.1 25.7 0.00 0.00 0.00 61 1014.4
20260506120319 9 360 16.1 25.7 0.00 0.00 0.00 61 1014.4
20260506115820 9 360 14.5 27.4 0.00 0.00 0.00 61 1014.3
20260506115327 9 360 14.5 27.4 0.00 0.00 0.00 61 1014.3
20260506114827 9 360 11.3 27.4 0.00 0.00 0.00 61 1014.4
20260506114335 9 360 17.7 27.4 0.00 0.00 0.00 61 1014.0
20260506113816 9 360 16.1 25.7 0.00 0.00 0.00 61 1013.8
20260506113316 9 360 14.5 22.5 0.00 0.00 0.00 61 1013.7
20260506112817 9 360 11.3 25.7 0.00 0.00 0.00 61 1013.8
20260506112324 9 360 12.9 25.7 0.00 0.00 0.00 61 1013.8
20260506111824 9 360 14.5 25.7 0.00 0.00 0.00 61 1014.0
20260506111333 9 360 17.7 25.7 0.00 0.00 0.00 61 1013.9
20260506110812 9 360 14.5 24.1 0.00 0.00 0.00 61 1013.9
20260506110312 10 360 12.9 24.1 0.00 0.00 0.00 61 1014.1
20260506105819 10 360 11.3 24.1 0.00 0.00 0.00 61 1014.1
20260506105321 10 360 11.3 20.9 0.00 0.00 0.00 61 1014.0
20260506104828 10 360 9.7 22.5 0.00 0.00 0.00 62 1014.4
20260506104328 10 360 11.3 22.5 0.00 0.00 0.00 62 1014.3
20260506103828 10 360 9.7 19.3 0.00 0.00 0.00 62 1014.1
20260506103335 10 360 9.7 30.6 0.00 0.00 0.00 62 1014.0
20260506102815 10 360 16.1 30.6 0.00 0.00 0.00 61 1013.8
20260506102321 10 360 14.5 22.5 0.00 0.00 0.00 61 1013.7
20260506101822 10 360 9.7 19.3 0.00 0.00 0.00 61 1013.7
20260506101349 10 360 12.9 25.7 0.00 0.00 0.00 61 1013.8
20260506100828 10 360 17.7 25.7 0.00 0.00 0.00 61 1013.5
20260506100336 10 360 14.5 22.5 0.00 0.00 0.00 61 1013.5
20260506095814 10 360 12.9 27.4 0.00 0.00 0.00 61 1013.4
20260506095316 10 360 14.5 27.4 0.00 0.00 0.00 61 1013.4
20260506094822 10 360 12.9 22.5 0.00 0.00 0.00 61 1013.3
20260506094349 10 360 9.7 22.5 0.00 0.00 0.00 61 1013.5
20260506093828 10 360 12.9 22.5 0.00 0.00 0.00 61 1013.6
20260506093329 10 360 16.1 22.5 0.00 0.00 0.00 61 1013.6
20260506092837 10 360 11.3 16.1 0.00 0.00 0.00 60 1013.5
20260506092338 10 360 8.0 25.7 0.00 0.00 0.00 60 1013.7
20260506091845 10 360 16.1 25.7 0.00 0.00 0.00 60 1013.5
20260506091324 10 360 14.5 22.5 0.00 0.00 0.00 60 1013.4
20260506090813 10 360 11.3 20.9 0.00 0.00 0.00 60 1013.5
20260506090359 10 360 8.0 20.9 0.00 0.00 0.00 60 1013.6
20260506085838 10 360 11.3 22.5 0.00 0.00 0.00 61 1013.4
20260506085341 10 360 14.5 22.5 0.00 0.00 0.00 61 1013.4
20260506084848 10 360 8.0 19.3 0.00 0.00 0.00 61 1013.4
20260506084328 10 360 11.3 22.5 0.00 0.00 0.00 61 1013.3
20260506083829 10 360 9.7 20.9 0.00 0.00 0.00 62 1013.3
20260506083337 10 360 12.9 20.9 0.00 0.00 0.00 62 1013.2
20260506082817 9 360 11.3 17.7 0.00 0.00 0.00 63 1013.0
20260506082344 10 360 12.9 17.7 0.00 0.00 0.00 63 1012.8
20260506081823 10 360 8.0 17.7 0.00 0.00 0.00 63 1012.7
20260506081323 9 360 9.7 19.3 0.00 0.00 0.00 63 1012.4
20260506080830 9 360 9.7 20.9 0.00 0.00 0.00 64 1012.2
20260506080330 9 360 14.5 20.9 0.00 0.00 0.00 64 1012.1
20260506073316 9 360 14.5 22.5 0.00 0.00 0.00 66 1011.3
20260506072837 9 360 12.9 20.9 0.00 0.00 0.00 66 1011.6
20260506072343 9 360 9.7 20.9 0.00 0.00 0.00 66 1012.0
20260506071849 9 360 9.7 24.1 0.00 0.00 0.00 66 1012.1
20260506071328 9 360 14.5 25.7 0.00 0.00 0.00 66 1011.5
20260506070836 9 20 17.7 25.7 0.00 0.00 0.00 66 1011.4
20260506070317 9 360 14.5 24.1 0.00 0.00 0.00 67 1011.6
20260506062317 10 21 11.3 22.5 0.00 0.00 0.00 69 1012.0
20260506061819 10 36 11.3 22.5 0.00 0.00 0.00 69 1012.0
20260506061325 10 20 12.9 29.0 0.00 0.00 0.00 69 1011.8
20260506060832 10 31 11.3 29.0 0.00 0.00 0.00 69 1011.7
20260506060312 10 26 11.3 22.5 0.00 0.00 0.00 70 1011.7
20260506051314 10 63 11.3 24.1 0.00 0.00 0.00 68 1011.6
20260506050814 10 67 11.3 22.5 0.00 0.00 0.00 68 1011.7
20260506050322 10 77 11.3 22.5 0.00 0.00 0.00 68 1011.9
20260506044844 10 66 14.5 25.7 0.00 0.00 0.00 68 1011.6
20260506044323 10 70 12.9 24.1 0.00 0.00 0.00 68 1011.5
20260506043823 10 40 14.5 24.1 0.00 0.00 0.00 68 1011.6
20260506043351 10 360 12.9 24.1 0.00 0.00 0.00 68 1011.6
20260506042837 10 22 16.1 24.1 0.00 0.00 0.00 68 1011.7
20260506042318 10 66 12.9 25.7 0.00 0.00 0.00 68 1011.6
20260506041817 10 32 17.7 25.7 0.00 0.00 0.00 68 1011.3
20260506041345 10 63 16.1 25.7 0.00 0.00 0.00 68 1011.5
20260506040823 10 360 11.3 20.9 0.00 0.00 0.00 68 1011.6
20260506040330 10 28 12.9 22.5 0.00 0.00 0.00 68 1011.5
20260506035830 10 56 11.3 22.5 0.00 0.00 0.00 68 1011.7
20260506035330 10 84 8.0 19.3 0.00 0.00 0.00 68 1011.6
20260506034839 10 24 9.7 22.5 0.00 0.00 0.00 68 1011.5
20260506034318 10 28 8.0 22.5 0.00 0.00 0.00 68 1011.6
20260506033825 10 50 9.7 17.7 0.00 0.00 0.00 68 1011.5
20260506033326 10 46 11.3 19.3 0.00 0.00 0.00 68 1011.4
20260506032827 10 44 9.7 25.7 0.00 0.00 0.00 68 1011.3
20260506032334 10 52 12.9 25.7 0.00 0.00 0.00 67 1011.2
20260506031814 10 360 11.3 19.3 0.00 0.00 0.00 67 1011.2
20260506031313 10 360 12.9 27.4 0.00 0.00 0.00 67 1011.3
20260506030821 10 360 17.7 27.4 0.00 0.00 0.00 66 1011.0
20260506030328 10 360 14.5 29.0 0.00 0.00 0.00 66 1011.1
20260506025828 11 360 11.3 29.0 0.00 0.00 0.00 66 1010.9
20260506025335 11 360 12.9 24.1 0.00 0.00 0.00 66 1011.1
20260506024814 11 360 12.9 20.9 0.00 0.00 0.00 65 1011.1
20260506024342 11 360 11.3 20.9 0.00 0.00 0.00 65 1011.0
20260506023850 11 360 14.5 25.7 0.00 0.00 0.00 65 1010.9
20260506023328 11 360 14.5 25.7 0.00 0.00 0.00 65 1010.7
20260506022828 11 360 11.3 27.4 0.00 0.00 0.00 65 1010.7
20260506022335 11 360 16.1 27.4 0.00 0.00 0.00 65 1010.5
20260506021815 11 360 16.1 27.4 0.00 0.00 0.00 66 1010.4
20260506021315 11 347 12.9 25.7 0.00 0.00 0.00 66 1010.4
20260506020822 11 35 8.0 25.7 0.00 0.00 0.00 66 1010.3
20260506020321 11 35 11.3 25.7 0.00 0.00 0.00 66 1010.1
20260506015848 11 22 14.5 24.1 0.00 0.00 0.00 66 1010.0
20260506015327 11 42 11.3 22.5 0.00 0.00 0.00 66 1010.0
20260506014836 11 70 16.1 22.5 0.00 0.00 0.00 65 1009.7
20260506014314 11 69 12.9 22.5 0.00 0.00 0.00 66 1009.6
20260506013812 11 48 8.0 22.5 0.00 0.00 0.00 66 1009.7
20260506013313 11 49 11.3 24.1 0.00 0.00 0.00 66 1009.5
20260506012819 11 23 16.1 24.1 0.00 0.00 0.00 65 1009.4
20260506012320 11 37 9.7 24.1 0.00 0.00 0.00 65 1009.2